EW5809 Weather Reports


Display with metric or nautical units.
time (UTC)temp
F
wind
direction
speed
MPH
gust
MPH
rain 1hr
in
rain 24hr
in
rain mn
in
humidity
%
barometer
mb
20200227000152 61 79 4.0 8.0 0.00 0.00 0.00 16 1024.1
20200226234540 61 62 3.0 7.0 0.00 0.00 0.00 16 1024.1
20200226233122 61 57 6.0 14.0 0.00 0.00 0.00 15 1024.2
20200226231558 61 84 5.0 12.0 0.00 0.00 0.00 16 1024.2
20200226230053 61 61 4.0 11.0 0.00 0.00 0.00 15 1024.5
20200226224632 61 75 2.0 10.0 0.00 0.00 0.00 16 1024.5
20200226223058 60 54 5.0 10.0 0.00 0.00 0.00 16 1024.8
20200226221555 60 51 5.0 11.0 0.00 0.00 0.00 16 1025.0
20200226220109 60 46 5.0 14.0 0.00 0.00 0.00 15 1025.1
20200226214545 60 51 3.0 9.0 0.00 0.00 0.00 15 1025.3
20200226213102 60 79 4.0 14.0 0.00 0.00 0.00 16 1025.5
20200226211529 59 65 8.0 17.0 0.00 0.00 0.00 16 1025.7
20200226210017 59 75 6.0 11.0 0.00 0.00 0.00 17 1025.9
20200226204513 59 63 5.0 10.0 0.00 0.00 0.00 17 1026.0
20200226203012 58 53 6.0 13.0 0.00 0.00 0.00 17 1026.3
20200226201547 58 52 6.0 11.0 0.00 0.00 0.00 17 1026.6
20200226200006 58 75 9.0 16.0 0.00 0.00 0.00 17 1026.7
20200226194506 57 40 6.0 14.0 0.00 0.00 0.00 18 1026.9
20200226193030 58 80 4.0 13.0 0.00 0.00 0.00 18 1027.1
20200226191725 57 66 5.0 14.0 0.00 0.00 0.00 18 1027.3
20200226190106 56 46 4.0 15.0 0.00 0.00 0.00 18 1027.6
20200226184709 56 57 9.0 18.0 0.00 0.00 0.00 18 1027.8
20200226183137 55 58 10.0 17.0 0.00 0.00 0.00 18 1028.0
20200226181619 54 51 5.0 12.0 0.00 0.00 0.00 18 1028.0
20200226180122 54 65 5.0 12.0 0.00 0.00 0.00 17 1028.2
20200226174639 54 79 4.0 12.0 0.00 0.00 0.00 17 1028.3
20200226173102 53 121 6.0 15.0 0.00 0.00 0.00 19 1028.3
20200226171622 52 78 5.0 18.0 0.00 0.00 0.00 19 1028.2
20200226170130 51 71 6.0 15.0 0.00 0.00 0.00 18 1028.4
20200226164619 51 78 7.0 16.0 0.00 0.00 0.00 18 1028.2
20200226163145 51 56 7.0 15.0 0.00 0.00 0.00 19 1028.2
20200226161631 50 64 6.0 15.0 0.00 0.00 0.00 19 1028.4
20200226160109 49 56 8.0 17.0 0.00 0.00 0.00 20 1028.5
20200226154628 49 60 6.0 17.0 0.00 0.00 0.00 20 1028.5
20200226153114 48 66 10.0 19.0 0.00 0.00 0.00 19 1028.3
20200226151612 47 61 5.0 15.0 0.00 0.00 0.00 21 1028.3
20200226150040 47 115 6.0 14.0 0.00 0.00 0.00 21 1028.3
20200226144545 46 51 6.0 13.0 0.00 0.00 0.00 20 1027.9
20200226143104 45 77 8.0 17.0 0.00 0.00 0.00 21 1027.8
20200226141624 45 58 4.0 19.0 0.00 0.00 0.00 20 1027.8
20200226140108 45 68 5.0 15.0 0.00 0.00 0.00 20 1027.4
20200226134530 45 65 5.0 11.0 0.00 0.00 0.00 20 1027.4
20200226133042 45 51 5.0 14.0 0.00 0.00 0.00 20 1027.5
20200226131600 45 63 5.0 9.0 0.00 0.00 0.00 20 1027.3
20200226130016 45 68 4.0 8.0 0.00 0.00 0.00 20 1027.1
20200226124516 45 70 1.0 10.0 0.00 0.00 0.00 22 1027.3
20200226123036 45 82 3.0 8.0 0.00 0.00 0.00 21 1027.2
20200226121516 46 63 5.0 11.0 0.00 0.00 0.00 20 1027.1
20200226120043 46 58 4.0 10.0 0.00 0.00 0.00 20 1027.1
20200226114508 46 86 4.0 12.0 0.00 0.00 0.00 20 1027.0
20200226113019 46 60 3.0 10.0 0.00 0.00 0.00 21 1027.2
20200226111516 45 56 2.0 8.0 0.00 0.00 0.00 22 1027.3
20200226110002 46 73 1.0 6.0 0.00 0.00 0.00 22 1027.4
20200226104814 46 55 2.0 8.0 0.00 0.00 0.00 22 1027.4
20200226103253 46 32 0.0 10.0 0.00 0.00 0.00 22 1027.4
20200226101707 46 321 0.0 8.0 0.00 0.00 0.00 22 1027.2
20200226100220 46 359 4.0 13.0 0.00 0.00 0.00 23 1027.0
20200226094949 46 8 1.0 7.0 0.00 0.00 0.00 23 1027.0
20200226093136 47 35 3.0 9.0 0.00 0.00 0.00 22 1027.1
20200226090118 46 28 1.0 6.0 0.00 0.00 0.00 23 1027.1
20200226084652 47 296 3.0 13.0 0.00 0.00 0.00 23 1026.9
20200226083055 48 359 1.0 12.0 0.00 0.00 0.00 22 1026.8
20200226081659 47 20 1.0 11.0 0.00 0.00 0.00 23 1026.7
20200226080115 46 328 3.0 8.0 0.00 0.00 0.00 23 1026.7
20200226074552 46 320 2.0 11.0 0.00 0.00 0.00 24 1026.6
20200226073214 46 26 1.0 6.0 0.00 0.00 0.00 24 1026.7
20200226071615 47 331 4.0 13.0 0.00 0.00 0.00 23 1026.7
20200226070046 47 294 4.0 10.0 0.00 0.00 0.00 22 1026.7
20200226064541 47 353 2.0 10.0 0.00 0.00 0.00 22 1026.9
20200226063104 48 292 5.0 12.0 0.00 0.00 0.00 21 1026.8
20200226061552 48 334 7.0 14.0 0.00 0.00 0.00 20 1027.0
20200226060115 48 343 4.0 15.0 0.00 0.00 0.00 20 1027.0
20200226054656 48 18 5.0 12.0 0.00 0.00 0.00 19 1026.9
20200226053132 49 340 5.0 14.0 0.00 0.00 0.00 19 1026.7
20200226051555 49 352 5.0 15.0 0.00 0.00 0.00 19 1026.4
20200226050050 50 314 6.0 14.0 0.00 0.00 0.00 18 1026.3
20200226044524 50 323 6.0 13.0 0.00 0.00 0.00 17 1026.1
20200226043101 50 305 3.0 17.0 0.00 0.00 0.00 18 1025.8
20200226041626 51 338 5.0 16.0 0.00 0.00 0.00 17 1025.6
20200226040016 51 342 9.0 18.0 0.00 0.00 0.00 16 1025.3
20200226034543 52 313 4.0 20.0 0.00 0.00 0.00 16 1025.3
20200226033027 52 316 4.0 12.0 0.00 0.00 0.00 17 1025.2
20200226031515 52 11 3.0 16.0 0.00 0.00 0.00 18 1025.1
20200226030023 52 320 5.0 16.0 0.00 0.00 0.00 18 1024.8
20200226024514 53 347 8.0 21.0 0.00 0.00 0.00 19 1024.6
20200226023012 53 352 4.0 17.0 0.00 0.00 0.00 19 1024.4
20200226021505 53 278 10.0 21.0 0.00 0.00 0.00 18 1023.7
20200226020019 54 319 7.0 17.0 0.00 0.00 0.00 19 1023.7
20200226014504 54 314 3.0 10.0 0.00 0.00 0.00 18 1023.7
20200226013004 54 246 1.0 7.0 0.00 0.00 0.00 18 1023.6
20200226011501 55 330 1.0 13.0 0.00 0.00 0.00 17 1023.5
20200226010138 56 296 3.0 18.0 0.00 0.00 0.00 16 1023.3
20200226004717 56 351 8.0 18.0 0.00 0.00 0.00 15 1023.2
20200226003149 57 24 5.0 14.0 0.00 0.00 0.00 15 1023.0
20200226001726 58 321 5.0 12.0 0.00 0.00 0.00 15 1022.8